Time,TemperatureF,DewpointF,PressureIn,WindDirection,WindDirectionDegrees,WindSpeedMPH,WindSpeedGustMPH,Humidity,HourlyPrecipIn,Conditions,Clouds,dailyrainin,SoftwareType,DateUTC
2013-01-08 00:04:00,50.2,46.2,30.16,WSW,253,0.0,0.0,86,0.00,,,0.00,WeatherTracker,2013-01-08 08:04:00,
2013-01-08 00:09:00,50.2,46.2,30.16,West,270,0.0,0.0,86,0.00,,,0.00,WeatherTracker,2013-01-08 08:09:00,
2013-01-08 00:14:00,50.1,46.1,30.16,WSW,249,0.0,0.0,86,0.00,,,0.00,WeatherTracker,2013-01-08 08:14:00,
2013-01-08 00:19:00,50.0,46.0,30.16,WSW,249,0.0,0.0,86,0.00,,,0.00,WeatherTracker,2013-01-08 08:19:00,
2013-01-08 00:24:00,49.9,46.2,30.16,WSW,249,0.0,0.0,87,0.00,,,0.00,WeatherTracker,2013-01-08 08:24:00,
2013-01-08 00:29:00,49.7,46.0,30.17,WSW,249,0.0,0.0,87,0.00,,,0.00,WeatherTracker,2013-01-08 08:29:00,
2013-01-08 00:34:00,49.6,45.9,30.17,WSW,248,0.0,0.0,87,0.00,,,0.00,WeatherTracker,2013-01-08 08:34:00,
2013-01-08 00:39:00,49.3,45.6,30.17,WSW,248,0.0,0.0,87,0.00,,,0.00,WeatherTracker,2013-01-08 08:39:00,
2013-01-08 00:44:00,49.2,45.5,30.17,WSW,248,0.0,0.0,87,0.00,,,0.00,WeatherTracker,2013-01-08 08:44:00,
2013-01-08 00:49:00,49.1,45.7,30.17,WSW,248,0.0,0.0,88,0.00,,,0.00,WeatherTracker,2013-01-08 08:49:00,
2013-01-08 00:54:00,49.0,45.6,30.17,WSW,238,0.0,0.0,88,0.00,,,0.00,WeatherTracker,2013-01-08 08:54:00,
2013-01-08 00:59:00,48.8,45.4,30.17,WSW,237,1.0,0.0,88,0.00,,,0.00,WeatherTracker,2013-01-08 08:59:00,
2013-01-08 01:04:00,48.9,45.5,30.17,WSW,243,1.0,0.0,88,0.00,,,0.00,WeatherTracker,2013-01-08 09:04:00,
2013-01-08 01:09:00,48.9,45.5,30.17,WSW,246,0.0,0.0,88,0.00,,,0.00,WeatherTracker,2013-01-08 09:09:00,
2013-01-08 01:14:00,48.9,45.5,30.17,WSW,252,0.0,0.0,88,0.00,,,0.00,WeatherTracker,2013-01-08 09:14:00,
2013-01-08 01:19:00,48.9,45.5,30.17,WSW,253,0.0,0.0,88,0.00,,,0.00,WeatherTracker,2013-01-08 09:19:00,
2013-01-08 01:24:00,48.9,45.5,30.18,WSW,255,0.0,0.0,88,0.00,,,0.00,WeatherTracker,2013-01-08 09:24:00,
2013-01-08 01:30:00,48.9,45.5,30.18,WSW,255,0.0,0.0,88,0.00,,,0.00,WeatherTracker,2013-01-08 09:30:00,
2013-01-08 01:35:00,48.8,45.4,30.17,WSW,257,0.0,0.0,88,0.00,,,0.00,WeatherTracker,2013-01-08 09:35:00,
2013-01-08 01:40:00,48.8,45.4,30.17,WSW,256,1.0,0.0,88,0.00,,,0.00,WeatherTracker,2013-01-08 09:40:00,
2013-01-08 01:45:00,48.8,45.7,30.17,West,273,3.0,0.0,89,0.00,,,0.00,WeatherTracker,2013-01-08 09:45:00,
2013-01-08 01:50:00,48.8,45.7,30.17,West,274,1.0,0.0,89,0.00,,,0.00,WeatherTracker,2013-01-08 09:50:00,
2013-01-08 01:55:00,48.8,45.4,30.17,West,272,1.0,0.0,88,0.00,,,0.00,WeatherTracker,2013-01-08 09:55:00,
2013-01-08 02:00:00,48.8,45.4,30.17,West,271,0.0,0.0,88,0.00,,,0.00,WeatherTracker,2013-01-08 10:00:00,
2013-01-08 02:05:00,48.8,45.4,30.17,West,277,0.0,0.0,88,0.00,,,0.00,WeatherTracker,2013-01-08 10:05:00,
2013-01-08 02:10:00,48.7,45.3,30.18,West,281,1.0,0.0,88,0.00,,,0.00,WeatherTracker,2013-01-08 10:10:00,
2013-01-08 02:15:00,48.6,45.2,30.17,West,270,1.0,0.0,88,0.00,,,0.00,WeatherTracker,2013-01-08 10:15:00,
2013-01-08 02:20:00,48.5,45.4,30.17,West,278,0.0,0.0,89,0.00,,,0.00,WeatherTracker,2013-01-08 10:20:00,
2013-01-08 02:25:00,48.5,45.4,30.17,WNW,287,2.0,0.0,89,0.00,,,0.00,WeatherTracker,2013-01-08 10:25:00,
2013-01-08 02:30:00,48.4,45.3,30.17,WNW,283,1.0,0.0,89,0.00,,,0.00,WeatherTracker,2013-01-08 10:30:00,
2013-01-08 02:35:00,48.4,45.3,30.17,WNW,292,0.0,0.0,89,0.00,,,0.00,WeatherTracker,2013-01-08 10:35:00,
2013-01-08 02:40:00,48.3,45.2,30.17,NW,314,1.0,0.0,89,0.00,,,0.00,WeatherTracker,2013-01-08 10:40:00,
2013-01-08 02:45:00,48.2,45.4,30.17,WNW,300,0.0,0.0,90,0.00,,,0.00,WeatherTracker,2013-01-08 10:45:00,
2013-01-08 02:50:00,48.1,45.3,30.17,WNW,299,0.0,0.0,90,0.00,,,0.00,WeatherTracker,2013-01-08 10:50:00,
2013-01-08 02:55:00,48.0,45.2,30.17,WNW,300,0.0,0.0,90,0.00,,,0.00,WeatherTracker,2013-01-08 10:55:00,
2013-01-08 03:00:00,48.0,45.2,30.17,West,277,1.0,0.0,90,0.00,,,0.00,WeatherTracker,2013-01-08 11:00:00,
2013-01-08 03:05:00,47.9,45.1,30.17,West,276,0.0,0.0,90,0.00,,,0.00,WeatherTracker,2013-01-08 11:05:00,
2013-01-08 03:10:00,47.9,45.1,30.17,West,259,1.0,0.0,90,0.00,,,0.00,WeatherTracker,2013-01-08 11:10:00,
2013-01-08 03:15:00,47.8,45.0,30.17,WSW,249,2.0,0.0,90,0.00,,,0.00,WeatherTracker,2013-01-08 11:15:00,
2013-01-08 03:20:00,47.7,44.9,30.17,WNW,293,2.0,0.0,90,0.00,,,0.00,WeatherTracker,2013-01-08 11:20:00,
2013-01-08 03:25:00,47.7,44.9,30.17,WNW,298,1.0,0.0,90,0.00,,,0.00,WeatherTracker,2013-01-08 11:25:00,
2013-01-08 03:30:00,47.6,45.1,30.17,WNW,283,2.0,0.0,91,0.00,,,0.00,WeatherTracker,2013-01-08 11:30:00,
2013-01-08 03:35:00,47.6,45.1,30.17,West,266,0.0,0.0,91,0.00,,,0.00,WeatherTracker,2013-01-08 11:35:00,
2013-01-08 03:40:00,47.5,45.0,30.17,WNW,290,1.0,0.0,91,0.00,,,0.00,WeatherTracker,2013-01-08 11:40:00,
2013-01-08 03:46:00,47.5,45.0,30.17,WNW,287,0.0,0.0,91,0.00,,,0.00,WeatherTracker,2013-01-08 11:46:00,
2013-01-08 03:51:00,47.4,44.9,30.17,NNW,333,2.0,0.0,91,0.00,,,0.00,WeatherTracker,2013-01-08 11:51:00,
2013-01-08 03:56:00,47.5,45.0,30.17,WNW,300,1.0,0.0,91,0.00,,,0.00,WeatherTracker,2013-01-08 11:56:00,
2013-01-08 04:01:00,47.5,45.0,30.17,North,5,1.0,0.0,91,0.00,,,0.00,WeatherTracker,2013-01-08 12:01:00,
2013-01-08 04:06:00,47.5,45.0,30.17,NW,322,0.0,0.0,91,0.00,,,0.00,WeatherTracker,2013-01-08 12:06:00,
2013-01-08 04:11:00,47.5,45.0,30.17,NNW,338,0.0,0.0,91,0.00,,,0.00,WeatherTracker,2013-01-08 12:11:00,
2013-01-08 04:16:00,47.5,45.0,30.17,NW,323,0.0,0.0,91,0.00,,,0.00,WeatherTracker,2013-01-08 12:16:00,
2013-01-08 04:21:00,47.4,44.9,30.17,NW,324,0.0,0.0,91,0.00,,,0.00,WeatherTracker,2013-01-08 12:21:00,
2013-01-08 04:26:00,47.4,44.9,30.17,NW,323,0.0,0.0,91,0.00,,,0.00,WeatherTracker,2013-01-08 12:26:00,
2013-01-08 04:31:00,47.3,44.8,30.17,NW,323,0.0,0.0,91,0.00,,,0.00,WeatherTracker,2013-01-08 12:31:00,
2013-01-08 04:36:00,47.2,44.7,30.17,NW,326,0.0,0.0,91,0.00,,,0.00,WeatherTracker,2013-01-08 12:36:00,
2013-01-08 04:41:00,47.2,44.7,30.17,WNW,297,1.0,0.0,91,0.00,,,0.00,WeatherTracker,2013-01-08 12:41:00,
2013-01-08 04:46:00,47.3,44.8,30.17,NW,312,0.0,0.0,91,0.00,,,0.00,WeatherTracker,2013-01-08 12:46:00,
2013-01-08 04:51:00,47.3,44.8,30.17,NW,311,0.0,0.0,91,0.00,,,0.00,WeatherTracker,2013-01-08 12:51:00,
2013-01-08 04:56:00,47.3,44.8,30.16,NW,306,0.0,0.0,91,0.00,,,0.00,WeatherTracker,2013-01-08 12:56:00,
2013-01-08 05:01:00,47.2,44.7,30.16,NW,304,1.0,0.0,91,0.00,,,0.00,WeatherTracker,2013-01-08 13:01:00,
2013-01-08 05:06:00,47.2,44.7,30.16,WSW,244,1.0,0.0,91,0.00,,,0.00,WeatherTracker,2013-01-08 13:06:00,
2013-01-08 05:11:00,47.2,44.7,30.16,WSW,243,0.0,0.0,91,0.00,,,0.00,WeatherTracker,2013-01-08 13:11:00,
2013-01-08 05:16:00,47.1,44.6,30.16,West,262,0.0,0.0,91,0.00,,,0.00,WeatherTracker,2013-01-08 13:16:00,
2013-01-08 05:21:00,46.9,44.4,30.16,West,262,0.0,0.0,91,0.00,,,0.00,WeatherTracker,2013-01-08 13:21:00,
2013-01-08 05:26:00,46.8,44.3,30.17,West,262,0.0,0.0,91,0.00,,,0.00,WeatherTracker,2013-01-08 13:26:00,
2013-01-08 05:31:00,46.9,44.4,30.17,NW,305,2.0,0.0,91,0.00,,,0.00,WeatherTracker,2013-01-08 13:31:00,
2013-01-08 05:36:00,47.0,44.5,30.17,WNW,300,0.0,0.0,91,0.00,,,0.00,WeatherTracker,2013-01-08 13:36:00,
2013-01-08 05:41:00,47.0,44.5,30.17,WNW,291,0.0,0.0,91,0.00,,,0.00,WeatherTracker,2013-01-08 13:41:00,
2013-01-08 05:46:00,46.9,44.4,30.17,WSW,248,1.0,0.0,91,0.00,,,0.00,WeatherTracker,2013-01-08 13:46:00,
2013-01-08 05:52:00,46.8,44.3,30.17,West,271,1.0,0.0,91,0.00,,,0.00,WeatherTracker,2013-01-08 13:52:00,
2013-01-08 05:57:00,46.7,44.2,30.17,NNW,340,0.0,0.0,91,0.00,,,0.00,WeatherTracker,2013-01-08 13:57:00,
2013-01-08 06:02:00,46.7,44.2,30.17,West,274,2.0,0.0,91,0.00,,,0.00,WeatherTracker,2013-01-08 14:02:00,
2013-01-08 06:07:00,46.7,44.2,30.17,West,266,0.0,0.0,91,0.00,,,0.00,WeatherTracker,2013-01-08 14:07:00,
2013-01-08 06:12:00,46.6,44.1,30.17,West,270,0.0,0.0,91,0.00,,,0.00,WeatherTracker,2013-01-08 14:12:00,
2013-01-08 06:17:00,46.5,44.0,30.17,WNW,286,1.0,0.0,91,0.00,,,0.00,WeatherTracker,2013-01-08 14:17:00,
2013-01-08 06:22:00,46.5,44.0,30.17,West,267,1.0,0.0,91,0.00,,,0.00,WeatherTracker,2013-01-08 14:22:00,
2013-01-08 06:27:00,46.5,44.0,30.17,West,262,1.0,0.0,91,0.00,,,0.00,WeatherTracker,2013-01-08 14:27:00,
2013-01-08 06:32:00,46.4,43.9,30.17,West,270,1.0,0.0,91,0.00,,,0.00,WeatherTracker,2013-01-08 14:32:00,
2013-01-08 06:37:00,46.4,43.9,30.18,West,269,2.0,0.0,91,0.00,,,0.00,WeatherTracker,2013-01-08 14:37:00,
2013-01-08 06:42:00,46.5,44.0,30.18,West,281,1.0,0.0,91,0.00,,,0.00,WeatherTracker,2013-01-08 14:42:00,
2013-01-08 06:47:00,46.5,44.0,30.18,WNW,284,2.0,0.0,91,0.00,,,0.00,WeatherTracker,2013-01-08 14:47:00,
2013-01-08 06:52:00,46.5,44.0,30.18,West,267,2.0,0.0,91,0.00,,,0.00,WeatherTracker,2013-01-08 14:52:00,
2013-01-08 06:57:00,46.4,43.9,30.18,WNW,284,1.0,0.0,91,0.00,,,0.00,WeatherTracker,2013-01-08 14:57:00,
2013-01-08 07:02:00,46.4,43.9,30.18,WNW,285,1.0,0.0,91,0.00,,,0.00,WeatherTracker,2013-01-08 15:02:00,
2013-01-08 07:07:00,46.4,43.9,30.18,WSW,257,1.0,0.0,91,0.00,,,0.00,WeatherTracker,2013-01-08 15:07:00,
2013-01-08 07:12:00,46.5,44.0,30.18,WNW,283,2.0,0.0,91,0.00,,,0.00,WeatherTracker,2013-01-08 15:12:00,
2013-01-08 07:17:00,46.5,44.0,30.18,WNW,297,1.0,0.0,91,0.00,,,0.00,WeatherTracker,2013-01-08 15:17:00,
2013-01-08 07:22:00,46.6,44.1,30.18,West,280,0.0,0.0,91,0.00,,,0.00,WeatherTracker,2013-01-08 15:22:00,
2013-01-08 07:27:00,46.6,44.1,30.18,WNW,294,1.0,0.0,91,0.00,,,0.00,WeatherTracker,2013-01-08 15:27:00,
2013-01-08 07:32:00,46.7,44.2,30.18,WNW,290,1.0,0.0,91,0.00,,,0.00,WeatherTracker,2013-01-08 15:32:00,
2013-01-08 07:37:00,46.7,44.2,30.18,West,281,1.0,0.0,91,0.00,,,0.00,WeatherTracker,2013-01-08 15:37:00,
2013-01-08 07:42:00,46.7,44.2,30.19,WNW,288,2.0,0.0,91,0.00,,,0.00,WeatherTracker,2013-01-08 15:42:00,
2013-01-08 07:47:00,46.7,44.2,30.19,WNW,290,0.0,0.0,91,0.00,,,0.00,WeatherTracker,2013-01-08 15:47:00,
2013-01-08 07:52:00,46.8,44.3,30.19,WNW,299,1.0,0.0,91,0.00,,,0.00,WeatherTracker,2013-01-08 15:52:00,
2013-01-08 07:57:00,46.8,44.3,30.19,West,280,0.0,0.0,91,0.00,,,0.00,WeatherTracker,2013-01-08 15:57:00,
2013-01-08 08:02:00,47.0,44.5,30.19,West,263,0.0,0.0,91,0.00,,,0.00,WeatherTracker,2013-01-08 16:02:00,
2013-01-08 08:07:00,47.2,44.7,30.20,West,261,1.0,0.0,91,0.00,,,0.00,WeatherTracker,2013-01-08 16:07:00,
2013-01-08 08:12:00,47.4,44.6,30.19,West,264,1.0,0.0,90,0.00,,,0.00,WeatherTracker,2013-01-08 16:12:00,
2013-01-08 08:17:00,47.6,44.8,30.19,West,269,1.0,0.0,90,0.00,,,0.00,WeatherTracker,2013-01-08 16:17:00,
2013-01-08 08:23:00,47.8,45.0,30.20,West,262,0.0,0.0,90,0.00,,,0.00,WeatherTracker,2013-01-08 16:23:00,
2013-01-08 08:28:00,48.0,45.2,30.20,West,277,0.0,0.0,90,0.00,,,0.00,WeatherTracker,2013-01-08 16:28:00,
2013-01-08 08:33:00,48.2,45.1,30.20,WNW,290,0.0,0.0,89,0.00,,,0.00,WeatherTracker,2013-01-08 16:33:00,
2013-01-08 08:38:00,48.4,45.3,30.20,West,263,1.0,0.0,89,0.00,,,0.00,WeatherTracker,2013-01-08 16:38:00,
2013-01-08 08:43:00,48.6,45.5,30.20,West,271,2.0,0.0,89,0.00,,,0.00,WeatherTracker,2013-01-08 16:43:00,
2013-01-08 08:48:00,48.8,45.7,30.20,West,281,2.0,0.0,89,0.00,,,0.00,WeatherTracker,2013-01-08 16:48:00,
2013-01-08 08:53:00,49.1,45.7,30.20,West,276,1.0,0.0,88,0.00,,,0.00,WeatherTracker,2013-01-08 16:53:00,
2013-01-08 08:58:00,49.3,45.9,30.20,WNW,290,0.0,0.0,88,0.00,,,0.00,WeatherTracker,2013-01-08 16:58:00,
2013-01-08 09:03:00,49.8,46.1,30.21,NNW,341,1.0,0.0,87,0.00,,,0.00,WeatherTracker,2013-01-08 17:03:00,
2013-01-08 09:08:00,50.2,46.5,30.21,NW,315,0.0,0.0,87,0.00,,,0.00,WeatherTracker,2013-01-08 17:08:00,
2013-01-08 09:13:00,50.8,46.8,30.21,NNW,332,0.0,0.0,86,0.00,,,0.00,WeatherTracker,2013-01-08 17:13:00,
2013-01-08 09:18:00,51.1,46.4,30.21,NW,309,1.0,0.0,84,0.00,,,0.00,WeatherTracker,2013-01-08 17:18:00,
2013-01-08 09:23:00,51.2,46.2,30.22,WNW,293,1.0,0.0,83,0.00,,,0.00,WeatherTracker,2013-01-08 17:23:00,
2013-01-08 09:28:00,51.8,46.8,30.21,NW,322,2.0,0.0,83,0.00,,,0.00,WeatherTracker,2013-01-08 17:28:00,
2013-01-08 09:33:00,51.9,46.6,30.21,WNW,295,1.0,0.0,82,0.00,,,0.00,WeatherTracker,2013-01-08 17:33:00,
2013-01-08 09:38:00,51.6,46.6,30.22,NW,304,3.0,0.0,83,0.00,,,0.00,WeatherTracker,2013-01-08 17:38:00,
2013-01-08 09:43:00,51.6,46.6,30.22,WNW,302,3.0,0.0,83,0.00,,,0.00,WeatherTracker,2013-01-08 17:43:00,
2013-01-08 09:48:00,51.9,46.9,30.22,WNW,301,1.0,0.0,83,0.00,,,0.00,WeatherTracker,2013-01-08 17:48:00,
2013-01-08 09:53:00,52.4,47.1,30.22,West,269,0.0,0.0,82,0.00,,,0.00,WeatherTracker,2013-01-08 17:53:00,
2013-01-08 09:58:00,52.3,47.0,30.22,West,279,4.0,0.0,82,0.00,,,0.00,WeatherTracker,2013-01-08 17:58:00,
2013-01-08 10:03:00,52.3,47.0,30.23,NW,318,1.0,0.0,82,0.00,,,0.00,WeatherTracker,2013-01-08 18:03:00,
2013-01-08 10:08:00,52.7,47.4,30.23,WNW,292,0.0,0.0,82,0.00,,,0.00,WeatherTracker,2013-01-08 18:08:00,
2013-01-08 10:13:00,52.9,46.9,30.22,NNW,339,2.0,0.0,80,0.00,,,0.00,WeatherTracker,2013-01-08 18:13:00,
2013-01-08 10:18:00,53.2,47.5,30.22,NNW,343,2.0,0.0,81,0.00,,,0.00,WeatherTracker,2013-01-08 18:18:00,
2013-01-08 10:23:00,53.3,47.0,30.22,NNW,345,5.0,0.0,79,0.00,,,0.00,WeatherTracker,2013-01-08 18:23:00,
2013-01-08 10:28:00,53.4,47.1,30.22,WNW,297,3.0,0.0,79,0.00,,,0.00,WeatherTracker,2013-01-08 18:28:00,
2013-01-08 10:33:00,53.3,47.0,30.21,WNW,298,2.0,0.0,79,0.00,,,0.00,WeatherTracker,2013-01-08 18:33:00,
2013-01-08 10:39:00,53.3,47.3,30.21,WNW,302,0.0,0.0,80,0.00,,,0.00,WeatherTracker,2013-01-08 18:39:00,
2013-01-08 10:44:00,53.5,46.8,30.21,North,5,0.0,0.0,78,0.00,,,0.00,WeatherTracker,2013-01-08 18:44:00,
2013-01-08 10:49:00,53.8,47.1,30.20,NNW,341,1.0,0.0,78,0.00,,,0.00,WeatherTracker,2013-01-08 18:49:00,
2013-01-08 10:54:00,54.3,47.2,30.20,WNW,300,0.0,0.0,77,0.00,,,0.00,WeatherTracker,2013-01-08 18:54:00,
2013-01-08 10:59:00,54.8,47.4,30.19,NW,321,1.0,0.0,76,0.00,,,0.00,WeatherTracker,2013-01-08 18:59:00,
2013-01-08 11:04:00,55.1,47.3,30.19,NNE,25,2.0,0.0,75,0.00,,,0.00,WeatherTracker,2013-01-08 19:04:00,
2013-01-08 11:09:00,55.2,47.1,30.19,ENE,65,0.0,0.0,74,0.00,,,0.00,WeatherTracker,2013-01-08 19:09:00,
2013-01-08 11:14:00,55.5,47.3,30.19,NNE,25,0.0,0.0,74,0.00,,,0.00,WeatherTracker,2013-01-08 19:14:00,
2013-01-08 11:19:00,56.3,47.8,30.19,NE,34,0.0,0.0,73,0.00,,,0.00,WeatherTracker,2013-01-08 19:19:00,
2013-01-08 11:24:00,56.7,47.8,30.18,NNW,346,2.0,0.0,72,0.00,,,0.00,WeatherTracker,2013-01-08 19:24:00,
2013-01-08 11:29:00,56.8,47.5,30.18,NNW,340,2.0,0.0,71,0.00,,,0.00,WeatherTracker,2013-01-08 19:29:00,
2013-01-08 11:34:00,56.9,47.2,30.18,NNE,20,3.0,0.0,70,0.00,,,0.00,WeatherTracker,2013-01-08 19:34:00,
2013-01-08 11:39:00,56.5,46.8,30.18,NNE,23,1.0,0.0,70,0.00,,,0.00,WeatherTracker,2013-01-08 19:39:00,
2013-01-08 11:44:00,56.7,47.4,30.18,NW,311,1.0,0.0,71,0.00,,,0.00,WeatherTracker,2013-01-08 19:44:00,
2013-01-08 11:49:00,57.3,47.6,30.17,WSW,253,0.0,0.0,70,0.00,,,0.00,WeatherTracker,2013-01-08 19:49:00,
2013-01-08 11:54:00,57.4,47.3,30.17,NW,304,1.0,0.0,69,0.00,,,0.00,WeatherTracker,2013-01-08 19:54:00,
2013-01-08 11:59:00,57.4,47.3,30.17,NNW,334,3.0,0.0,69,0.00,,,0.00,WeatherTracker,2013-01-08 19:59:00,
2013-01-08 12:04:00,57.3,47.6,30.16,West,264,4.0,0.0,70,0.00,,,0.00,WeatherTracker,2013-01-08 20:04:00,
2013-01-08 12:09:00,57.4,47.3,30.16,North,357,4.0,0.0,69,0.00,,,0.00,WeatherTracker,2013-01-08 20:09:00,
2013-01-08 12:14:00,57.7,47.6,30.16,NNW,348,2.0,0.0,69,0.00,,,0.00,WeatherTracker,2013-01-08 20:14:00,
2013-01-08 12:19:00,57.6,47.5,30.16,NNW,348,5.0,0.0,69,0.00,,,0.00,WeatherTracker,2013-01-08 20:19:00,
2013-01-08 12:24:00,57.0,46.5,30.15,NW,307,6.0,0.0,68,0.00,,,0.00,WeatherTracker,2013-01-08 20:24:00,
2013-01-08 12:29:00,56.9,46.8,30.15,WNW,290,2.0,0.0,69,0.00,,,0.00,WeatherTracker,2013-01-08 20:29:00,
2013-01-08 12:34:00,56.7,46.6,30.15,NW,309,3.0,0.0,69,0.00,,,0.00,WeatherTracker,2013-01-08 20:34:00,
2013-01-08 12:40:00,56.9,46.8,30.15,NNW,332,4.0,0.0,69,0.00,,,0.00,WeatherTracker,2013-01-08 20:40:00,
2013-01-08 12:45:00,56.9,46.4,30.14,North,6,2.0,0.0,68,0.00,,,0.00,WeatherTracker,2013-01-08 20:45:00,
2013-01-08 12:50:00,57.4,46.9,30.14,North,354,5.0,0.0,68,0.00,,,0.00,WeatherTracker,2013-01-08 20:50:00,
2013-01-08 12:55:00,57.2,46.7,30.14,NNW,332,2.0,0.0,68,0.00,,,0.00,WeatherTracker,2013-01-08 20:55:00,
2013-01-08 13:00:00,57.4,46.9,30.14,NW,315,2.0,0.0,68,0.00,,,0.00,WeatherTracker,2013-01-08 21:00:00,
2013-01-08 13:05:00,57.4,46.9,30.14,NNW,327,0.0,0.0,68,0.00,,,0.00,WeatherTracker,2013-01-08 21:05:00,
2013-01-08 13:10:00,57.6,47.1,30.14,WSW,255,2.0,0.0,68,0.00,,,0.00,WeatherTracker,2013-01-08 21:10:00,
2013-01-08 13:15:00,57.7,46.8,30.14,NNW,341,1.0,0.0,67,0.00,,,0.00,WeatherTracker,2013-01-08 21:15:00,
2013-01-08 13:20:00,58.1,47.2,30.14,ENE,59,3.0,0.0,67,0.00,,,0.00,WeatherTracker,2013-01-08 21:20:00,
2013-01-08 13:25:00,58.0,47.1,30.14,NW,316,5.0,0.0,67,0.00,,,0.00,WeatherTracker,2013-01-08 21:25:00,
2013-01-08 13:30:00,57.7,46.8,30.14,NW,314,3.0,0.0,67,0.00,,,0.00,WeatherTracker,2013-01-08 21:30:00,
2013-01-08 13:35:00,57.8,46.9,30.13,WNW,290,2.0,0.0,67,0.00,,,0.00,WeatherTracker,2013-01-08 21:35:00,
2013-01-08 13:40:00,57.9,46.6,30.13,WNW,290,2.0,0.0,66,0.00,,,0.00,WeatherTracker,2013-01-08 21:40:00,
2013-01-08 13:45:00,58.2,46.9,30.13,NNE,33,1.0,0.0,66,0.00,,,0.00,WeatherTracker,2013-01-08 21:45:00,
2013-01-08 13:50:00,58.5,47.2,30.13,NW,315,0.0,0.0,66,0.00,,,0.00,WeatherTracker,2013-01-08 21:50:00,
2013-01-08 13:55:00,58.8,46.6,30.13,WNW,294,4.0,0.0,64,0.00,,,0.00,WeatherTracker,2013-01-08 21:55:00,
2013-01-08 14:00:00,59.0,46.8,30.13,NNW,328,2.0,0.0,64,0.00,,,0.00,WeatherTracker,2013-01-08 22:00:00,
2013-01-08 14:05:00,58.8,46.6,30.13,NNW,346,2.0,0.0,64,0.00,,,0.00,WeatherTracker,2013-01-08 22:05:00,
2013-01-08 14:10:00,59.0,46.8,30.13,ESE,107,4.0,0.0,64,0.00,,,0.00,WeatherTracker,2013-01-08 22:10:00,
2013-01-08 14:16:00,59.2,47.0,30.13,NNW,338,0.0,0.0,64,0.00,,,0.00,WeatherTracker,2013-01-08 22:16:00,
2013-01-08 14:21:00,59.2,47.0,30.13,NW,314,2.0,0.0,64,0.00,,,0.00,WeatherTracker,2013-01-08 22:21:00,
2013-01-08 14:26:00,59.3,46.7,30.13,NNE,32,1.0,0.0,63,0.00,,,0.00,WeatherTracker,2013-01-08 22:26:00,
2013-01-08 14:31:00,59.4,47.2,30.13,ENE,61,1.0,0.0,64,0.00,,,0.00,WeatherTracker,2013-01-08 22:31:00,
2013-01-08 14:36:00,59.5,46.9,30.13,NNW,334,2.0,0.0,63,0.00,,,0.00,WeatherTracker,2013-01-08 22:36:00,
2013-01-08 14:41:00,59.5,47.3,30.13,WNW,290,1.0,0.0,64,0.00,,,0.00,WeatherTracker,2013-01-08 22:41:00,
2013-01-08 14:46:00,59.3,47.1,30.13,WNW,301,4.0,0.0,64,0.00,,,0.00,WeatherTracker,2013-01-08 22:46:00,
2013-01-08 14:51:00,59.3,47.5,30.13,NW,311,5.0,0.0,65,0.00,,,0.00,WeatherTracker,2013-01-08 22:51:00,
2013-01-08 14:56:00,59.2,47.4,30.13,WNW,300,6.0,0.0,65,0.00,,,0.00,WeatherTracker,2013-01-08 22:56:00,
2013-01-08 15:01:00,58.7,47.4,30.13,WNW,294,4.0,0.0,66,0.00,,,0.00,WeatherTracker,2013-01-08 23:01:00,
2013-01-08 15:06:00,58.7,47.0,30.13,WNW,294,7.0,0.0,65,0.00,,,0.00,WeatherTracker,2013-01-08 23:06:00,
2013-01-08 15:11:00,58.0,46.7,30.13,North,5,4.0,0.0,66,0.00,,,0.00,WeatherTracker,2013-01-08 23:11:00,
2013-01-08 15:16:00,57.9,47.0,30.13,NNW,328,5.0,0.0,67,0.00,,,0.00,WeatherTracker,2013-01-08 23:16:00,
2013-01-08 15:21:00,57.6,46.7,30.13,NW,307,3.0,0.0,67,0.00,,,0.00,WeatherTracker,2013-01-08 23:21:00,
2013-01-08 15:26:00,57.6,46.7,30.13,WNW,299,3.0,0.0,67,0.00,,,0.00,WeatherTracker,2013-01-08 23:26:00,
2013-01-08 15:31:00,57.4,46.5,30.13,WNW,297,5.0,0.0,67,0.00,,,0.00,WeatherTracker,2013-01-08 23:31:00,
2013-01-08 15:36:00,57.4,46.9,30.13,NW,309,4.0,0.0,68,0.00,,,0.00,WeatherTracker,2013-01-08 23:36:00,
2013-01-08 15:41:00,57.4,46.9,30.13,NNW,328,1.0,0.0,68,0.00,,,0.00,WeatherTracker,2013-01-08 23:41:00,
2013-01-08 15:46:00,57.6,47.1,30.12,WNW,295,2.0,0.0,68,0.00,,,0.00,WeatherTracker,2013-01-08 23:46:00,
2013-01-08 15:51:00,57.6,47.1,30.12,WSW,257,0.0,0.0,68,0.00,,,0.00,WeatherTracker,2013-01-08 23:51:00,
2013-01-08 15:56:00,57.6,47.1,30.12,NW,315,3.0,0.0,68,0.00,,,0.00,WeatherTracker,2013-01-08 23:56:00,
2013-01-08 16:01:00,57.6,47.1,30.12,WNW,294,2.0,0.0,68,0.00,,,0.00,WeatherTracker,2013-01-09 00:01:00,
2013-01-08 16:07:00,57.7,47.2,30.12,NW,321,2.0,0.0,68,0.00,,,0.00,WeatherTracker,2013-01-09 00:07:00,
2013-01-08 16:12:00,57.7,47.2,30.12,NNW,341,1.0,0.0,68,0.00,,,0.00,WeatherTracker,2013-01-09 00:12:00,
2013-01-08 16:17:00,57.5,47.4,30.12,NW,312,3.0,0.0,69,0.00,,,0.00,WeatherTracker,2013-01-09 00:17:00,
2013-01-08 16:22:00,57.2,47.5,30.12,NW,322,1.0,0.0,70,0.00,,,0.00,WeatherTracker,2013-01-09 00:22:00,
2013-01-08 16:27:00,56.9,47.2,30.12,NNW,335,4.0,0.0,70,0.00,,,0.00,WeatherTracker,2013-01-09 00:27:00,
2013-01-08 16:32:00,56.5,47.2,30.12,NW,305,1.0,0.0,71,0.00,,,0.00,WeatherTracker,2013-01-09 00:32:00,
2013-01-08 16:37:00,56.0,46.7,30.12,NW,309,3.0,0.0,71,0.00,,,0.00,WeatherTracker,2013-01-09 00:37:00,
2013-01-08 16:42:00,55.6,46.7,30.11,WNW,297,3.0,0.0,72,0.00,,,0.00,WeatherTracker,2013-01-09 00:42:00,
2013-01-08 16:47:00,55.3,46.4,30.11,West,276,2.0,0.0,72,0.00,,,0.00,WeatherTracker,2013-01-09 00:47:00,
2013-01-08 16:52:00,55.1,46.6,30.11,West,277,4.0,0.0,73,0.00,,,0.00,WeatherTracker,2013-01-09 00:52:00,
2013-01-08 16:57:00,54.9,46.4,30.11,WNW,284,1.0,0.0,73,0.00,,,0.00,WeatherTracker,2013-01-09 00:57:00,
2013-01-08 17:02:00,54.7,46.6,30.11,WNW,290,3.0,0.0,74,0.00,,,0.00,WeatherTracker,2013-01-09 01:02:00,
2013-01-08 17:07:00,54.5,46.4,30.11,WNW,298,1.0,0.0,74,0.00,,,0.00,WeatherTracker,2013-01-09 01:07:00,
2013-01-08 17:12:00,54.3,46.5,30.11,NW,309,2.0,0.0,75,0.00,,,0.00,WeatherTracker,2013-01-09 01:12:00,
2013-01-08 17:17:00,54.1,46.4,30.11,WSW,253,1.0,0.0,75,0.00,,,0.00,WeatherTracker,2013-01-09 01:17:00,
2013-01-08 17:22:00,54.0,46.3,30.11,WNW,287,0.0,0.0,75,0.00,,,0.00,WeatherTracker,2013-01-09 01:22:00,
2013-01-08 17:27:00,54.0,46.3,30.11,West,281,2.0,0.0,75,0.00,,,0.00,WeatherTracker,2013-01-09 01:27:00,
2013-01-08 17:32:00,53.9,46.2,30.11,NW,311,4.0,0.0,75,0.00,,,0.00,WeatherTracker,2013-01-09 01:32:00,
2013-01-08 17:37:00,53.8,46.1,30.11,West,276,3.0,0.0,75,0.00,,,0.00,WeatherTracker,2013-01-09 01:37:00,
2013-01-08 17:42:00,53.7,46.3,30.11,WNW,300,2.0,0.0,76,0.00,,,0.00,WeatherTracker,2013-01-09 01:42:00,
2013-01-08 17:48:00,53.6,46.2,30.11,NW,304,1.0,0.0,76,0.00,,,0.00,WeatherTracker,2013-01-09 01:48:00,
2013-01-08 17:53:00,53.4,46.0,30.11,WNW,292,0.0,0.0,76,0.00,,,0.00,WeatherTracker,2013-01-09 01:53:00,
2013-01-08 17:58:00,53.4,46.0,30.12,WNW,283,1.0,0.0,76,0.00,,,0.00,WeatherTracker,2013-01-09 01:58:00,
2013-01-08 18:03:00,53.3,45.9,30.12,West,280,3.0,0.0,76,0.00,,,0.00,WeatherTracker,2013-01-09 02:03:00,
2013-01-08 18:08:00,53.3,46.3,30.12,NW,312,3.0,0.0,77,0.00,,,0.00,WeatherTracker,2013-01-09 02:08:00,
2013-01-08 18:13:00,53.3,46.3,30.12,WNW,294,4.0,0.0,77,0.00,,,0.00,WeatherTracker,2013-01-09 02:13:00,
2013-01-08 18:18:00,53.3,46.3,30.11,NW,322,3.0,0.0,77,0.00,,,0.00,WeatherTracker,2013-01-09 02:18:00,
2013-01-08 18:23:00,53.3,46.3,30.12,NW,307,3.0,0.0,77,0.00,,,0.00,WeatherTracker,2013-01-09 02:23:00,
2013-01-08 18:28:00,53.2,46.2,30.12,WNW,298,3.0,0.0,77,0.00,,,0.00,WeatherTracker,2013-01-09 02:28:00,
2013-01-08 18:33:00,53.1,46.1,30.12,West,266,1.0,0.0,77,0.00,,,0.00,WeatherTracker,2013-01-09 02:33:00,
2013-01-08 18:38:00,53.1,46.1,30.11,WNW,293,0.0,0.0,77,0.00,,,0.00,WeatherTracker,2013-01-09 02:38:00,
2013-01-08 18:43:00,53.0,46.0,30.11,West,279,0.0,0.0,77,0.00,,,0.00,WeatherTracker,2013-01-09 02:43:00,
2013-01-08 18:48:00,52.9,45.9,30.12,WNW,298,0.0,0.0,77,0.00,,,0.00,WeatherTracker,2013-01-09 02:48:00,
2013-01-08 18:53:00,52.8,45.8,30.12,North,356,0.0,0.0,77,0.00,,,0.00,WeatherTracker,2013-01-09 02:53:00,
2013-01-08 18:58:00,52.8,45.8,30.12,WNW,297,1.0,0.0,77,0.00,,,0.00,WeatherTracker,2013-01-09 02:58:00,
2013-01-08 19:03:00,52.7,45.7,30.12,West,263,1.0,0.0,77,0.00,,,0.00,WeatherTracker,2013-01-09 03:03:00,
2013-01-08 19:08:00,52.6,45.9,30.12,WNW,285,0.0,0.0,78,0.00,,,0.00,WeatherTracker,2013-01-09 03:08:00,
2013-01-08 19:13:00,52.5,45.8,30.13,WNW,283,1.0,0.0,78,0.00,,,0.00,WeatherTracker,2013-01-09 03:13:00,
2013-01-08 19:18:00,52.4,45.7,30.13,West,281,1.0,0.0,78,0.00,,,0.00,WeatherTracker,2013-01-09 03:18:00,
2013-01-08 19:23:00,52.3,45.6,30.13,West,278,1.0,0.0,78,0.00,,,0.00,WeatherTracker,2013-01-09 03:23:00,
2013-01-08 19:28:00,52.2,45.9,30.13,West,271,1.0,0.0,79,0.00,,,0.00,WeatherTracker,2013-01-09 03:28:00,
2013-01-08 19:33:00,52.2,45.9,30.13,WSW,250,1.0,0.0,79,0.00,,,0.00,WeatherTracker,2013-01-09 03:33:00,
2013-01-08 19:38:00,52.1,45.8,30.13,West,281,0.0,0.0,79,0.00,,,0.00,WeatherTracker,2013-01-09 03:38:00,
2013-01-08 19:43:00,52.0,45.7,30.13,WSW,248,1.0,0.0,79,0.00,,,0.00,WeatherTracker,2013-01-09 03:43:00,
2013-01-08 19:48:00,52.1,45.8,30.14,NW,305,1.0,0.0,79,0.00,,,0.00,WeatherTracker,2013-01-09 03:48:00,
2013-01-08 19:53:00,52.1,45.8,30.14,WNW,300,1.0,0.0,79,0.00,,,0.00,WeatherTracker,2013-01-09 03:53:00,
2013-01-08 19:58:00,52.0,45.7,30.14,West,281,2.0,0.0,79,0.00,,,0.00,WeatherTracker,2013-01-09 03:58:00,
2013-01-08 20:03:00,51.9,45.6,30.13,WNW,284,0.0,0.0,79,0.00,,,0.00,WeatherTracker,2013-01-09 04:03:00,
2013-01-08 20:09:00,51.8,45.5,30.13,NW,316,0.0,0.0,79,0.00,,,0.00,WeatherTracker,2013-01-09 04:09:00,
2013-01-08 20:13:00,51.7,45.4,30.13,NW,316,0.0,0.0,79,0.00,,,0.00,WeatherTracker,2013-01-09 04:13:00,
2013-01-08 20:19:00,51.6,45.6,30.12,NW,316,0.0,0.0,80,0.00,,,0.00,WeatherTracker,2013-01-09 04:19:00,
2013-01-08 20:24:00,51.5,45.2,30.12,NW,316,0.0,0.0,79,0.00,,,0.00,WeatherTracker,2013-01-09 04:24:00,
2013-01-08 20:29:00,51.2,45.2,30.12,NW,316,0.0,0.0,80,0.00,,,0.00,WeatherTracker,2013-01-09 04:29:00,
2013-01-08 20:34:00,51.2,45.2,30.12,West,274,0.0,0.0,80,0.00,,,0.00,WeatherTracker,2013-01-09 04:34:00,
2013-01-08 20:39:00,51.3,45.3,30.12,WSW,253,0.0,0.0,80,0.00,,,0.00,WeatherTracker,2013-01-09 04:39:00,
2013-01-08 20:44:00,51.2,45.6,30.12,WSW,246,1.0,0.0,81,0.00,,,0.00,WeatherTracker,2013-01-09 04:44:00,
2013-01-08 20:49:00,51.1,45.5,30.12,WSW,249,1.0,0.0,81,0.00,,,0.00,WeatherTracker,2013-01-09 04:49:00,
2013-01-08 20:54:00,51.0,45.4,30.12,WSW,248,2.0,0.0,81,0.00,,,0.00,WeatherTracker,2013-01-09 04:54:00,
2013-01-08 20:59:00,50.9,45.3,30.12,West,271,0.0,0.0,81,0.00,,,0.00,WeatherTracker,2013-01-09 04:59:00,
2013-01-08 21:00:00,50.9,45.6,30.13,West,278,1.0,0.0,82,0.00,,,0.00,WeatherTracker,2013-01-09 05:00:00,
2013-01-08 21:03:00,51.0,45.4,30.13,West,265,1.0,0.0,81,0.00,,,0.00,WeatherTracker,2013-01-09 05:03:00,
2013-01-08 21:08:00,50.9,45.3,30.12,WNW,283,1.0,0.0,81,0.00,,,0.00,WeatherTracker,2013-01-09 05:08:00,
2013-01-08 21:13:00,50.9,45.3,30.12,WNW,283,0.0,0.0,81,0.00,,,0.00,WeatherTracker,2013-01-09 05:13:00,
2013-01-08 21:18:00,50.9,45.3,30.12,West,277,1.0,0.0,81,0.00,,,0.00,WeatherTracker,2013-01-09 05:18:00,
2013-01-08 21:23:00,50.8,44.9,30.12,West,264,1.0,0.0,80,0.00,,,0.00,WeatherTracker,2013-01-09 05:23:00,
2013-01-08 21:28:00,50.7,45.1,30.12,WSW,248,2.0,0.0,81,0.00,,,0.00,WeatherTracker,2013-01-09 05:28:00,
2013-01-08 21:33:00,50.7,45.1,30.12,West,259,0.0,0.0,81,0.00,,,0.00,WeatherTracker,2013-01-09 05:33:00,
2013-01-08 21:38:00,50.7,45.1,30.12,WNW,284,1.0,0.0,81,0.00,,,0.00,WeatherTracker,2013-01-09 05:38:00,
2013-01-08 21:43:00,50.7,45.1,30.13,WNW,288,2.0,0.0,81,0.00,,,0.00,WeatherTracker,2013-01-09 05:43:00,
2013-01-08 21:48:00,50.8,45.2,30.12,NW,316,3.0,0.0,81,0.00,,,0.00,WeatherTracker,2013-01-09 05:48:00,
2013-01-08 21:53:00,50.8,45.2,30.13,West,280,2.0,0.0,81,0.00,,,0.00,WeatherTracker,2013-01-09 05:53:00,
2013-01-08 21:58:00,50.7,45.1,30.13,WNW,283,2.0,0.0,81,0.00,,,0.00,WeatherTracker,2013-01-09 05:58:00,
2013-01-08 22:03:00,50.6,45.3,30.13,West,259,5.0,0.0,82,0.00,,,0.00,WeatherTracker,2013-01-09 06:03:00,
2013-01-08 22:08:00,50.5,45.2,30.14,WNW,288,4.0,0.0,82,0.00,,,0.00,WeatherTracker,2013-01-09 06:08:00,
2013-01-08 22:13:00,50.5,44.9,30.13,West,273,2.0,0.0,81,0.00,,,0.00,WeatherTracker,2013-01-09 06:13:00,
2013-01-08 22:18:00,50.4,44.8,30.13,WNW,298,1.0,0.0,81,0.00,,,0.00,WeatherTracker,2013-01-09 06:18:00,
2013-01-08 22:23:00,50.4,44.8,30.13,WNW,293,0.0,0.0,81,0.00,,,0.00,WeatherTracker,2013-01-09 06:23:00,
2013-01-08 22:29:00,50.4,44.8,30.13,NW,304,1.0,0.0,81,0.00,,,0.00,WeatherTracker,2013-01-09 06:29:00,
2013-01-08 22:34:00,50.4,44.8,30.13,West,277,1.0,0.0,81,0.00,,,0.00,WeatherTracker,2013-01-09 06:34:00,
2013-01-08 22:39:00,50.3,44.7,30.13,West,270,0.0,0.0,81,0.00,,,0.00,WeatherTracker,2013-01-09 06:39:00,
2013-01-08 22:44:00,50.2,44.9,30.13,WNW,291,3.0,0.0,82,0.00,,,0.00,WeatherTracker,2013-01-09 06:44:00,
2013-01-08 22:49:00,50.2,44.9,30.13,WNW,295,3.0,0.0,82,0.00,,,0.00,WeatherTracker,2013-01-09 06:49:00,
2013-01-08 22:54:00,50.1,44.8,30.13,WNW,284,1.0,0.0,82,0.00,,,0.00,WeatherTracker,2013-01-09 06:54:00,
2013-01-08 22:59:00,50.0,44.7,30.13,West,263,2.0,0.0,82,0.00,,,0.00,WeatherTracker,2013-01-09 06:59:00,
2013-01-08 23:04:00,49.9,44.6,30.13,WNW,285,0.0,0.0,82,0.00,,,0.00,WeatherTracker,2013-01-09 07:04:00,
2013-01-08 23:09:00,49.9,44.6,30.13,West,276,1.0,0.0,82,0.00,,,0.00,WeatherTracker,2013-01-09 07:09:00,
2013-01-08 23:14:00,49.7,44.7,30.12,WNW,285,1.0,0.0,83,0.00,,,0.00,WeatherTracker,2013-01-09 07:14:00,
2013-01-08 23:19:00,49.7,44.7,30.12,West,276,0.0,0.0,83,0.00,,,0.00,WeatherTracker,2013-01-09 07:19:00,
2013-01-08 23:24:00,49.6,45.0,30.12,WSW,253,1.0,0.0,84,0.00,,,0.00,WeatherTracker,2013-01-09 07:24:00,
2013-01-08 23:29:00,49.5,44.9,30.13,West,267,2.0,0.0,84,0.00,,,0.00,WeatherTracker,2013-01-09 07:29:00,
2013-01-08 23:34:00,49.5,44.9,30.13,West,277,2.0,0.0,84,0.00,,,0.00,WeatherTracker,2013-01-09 07:34:00,
2013-01-08 23:39:00,49.5,44.9,30.13,West,280,0.0,0.0,84,0.00,,,0.00,WeatherTracker,2013-01-09 07:39:00,
2013-01-08 23:44:00,49.4,44.8,30.13,WNW,287,3.0,0.0,84,0.00,,,0.00,WeatherTracker,2013-01-09 07:44:00,
2013-01-08 23:49:00,49.3,44.7,30.13,West,269,1.0,0.0,84,0.00,,,0.00,WeatherTracker,2013-01-09 07:49:00,
2013-01-08 23:54:00,49.2,44.6,30.13,WNW,295,3.0,0.0,84,0.00,,,0.00,WeatherTracker,2013-01-09 07:54:00,
2013-01-08 23:59:00,49.2,44.6,30.13,West,274,2.0,0.0,84,0.00,,,0.00,WeatherTracker,2013-01-09 07:59:00,